Fitchburg, MA

1:09 AM EDT on August 23, 2017 (GMT -0400)
Fitchburg Municipal

Weather History for KFIT - May, 2014

Change the Weather History Date:

Thursday, May 22, 2014

  Actual Average (KORH) Record (KORH)
Temperature  
Mean Temperature 56 °F -  
Max Temperature 64 °F 69 °F 90 °F (1992)
Min Temperature 48 °F 49 °F 32 °F (1936)
Degree Days  
Heating Degree Days 9    
Growing Degree Days 6 (Base 50)    
Moisture  
Dew Point 52 °F    
Average Humidity 80    
Maximum Humidity 93    
Minimum Humidity 61    
Precipitation  
Precipitation 0.16 in - - ()
Sea Level Pressure  
Sea Level Pressure 29.90 in    
Wind  
Wind Speed 4 mph (SE)    
Max Wind Speed 12 mph    
Max Gust Speed -    
Visibility 9 miles    
Events Rain    
Averages and records for this station are not official NWS values.
T = Trace of Precipitation, MM = Missing Value Source: NWS Daily Summary

Daily Weather History Graph

Daily Weather History Graph

Search for Another Location

Airport or City:

Trip Planner

Search our weather history database for the weather conditions in past years. The results will help you decide how hot, cold, wet, or windy it might be!

Date:

Astronomy

May. 22, 2014 Rise Set
Actual Time 5:18 AM EDT 8:09 PM EDT
Civil Twilight 4:45 AM EDT 8:42 PM EDT
Nautical Twilight 4:03 AM EDT 9:24 PM EDT
Astronomical Twilight 3:15 AM EDT 10:13 PM EDT
Moon 1:44 AM EDT (5/22) 1:45 PM EDT (5/22)
Length of Visible Light 15h 56m
Length of Day
14h 50m
Last Quarter, 37% of the Moon is Illuminated
May 22
Last Quarter
May 28
New
Jun 5
First Quarter
Jun 13
Full
Jun 19
Last Quarter

Hourly Weather History & Observations

Time (EDT) Temp. Dew Point Humidity Pressure Visibility Wind Dir Wind Speed Gust Speed Precip Events Conditions
1:52 AM 55.9 °F 46.9 °F 72% 29.92 in 10.0 mi SSE 3.5 mph - N/A   Overcast
2:52 AM 55.9 °F 46.9 °F 72% 29.92 in 10.0 mi ESE 3.5 mph - N/A   Mostly Cloudy
3:52 AM 52.0 °F 46.9 °F 83% 29.92 in 10.0 mi Calm Calm - N/A   Partly Cloudy
4:52 AM 51.1 °F 46.9 °F 86% 29.91 in 10.0 mi NW 3.5 mph - N/A   Mostly Cloudy
5:52 AM 48.9 °F 46.0 °F 90% 29.91 in 10.0 mi North 3.5 mph - N/A   Partly Cloudy
6:52 AM 53.1 °F 48.0 °F 83% 29.92 in 10.0 mi Calm Calm - N/A   Overcast
7:02 AM 54.0 °F 48.9 °F 83% 29.92 in 10.0 mi Calm Calm - N/A   Mostly Cloudy
7:16 AM 54.0 °F 48.9 °F 83% 29.91 in 10.0 mi Calm Calm - N/A   Mostly Cloudy
7:30 AM 55.0 °F 48.9 °F 80% 29.91 in 10.0 mi Variable 3.5 mph - N/A   Overcast
7:50 AM 55.4 °F 50.0 °F 82% 29.91 in 10.0 mi ESE 3.5 mph - N/A   Overcast
7:52 AM 55.0 °F 50.0 °F 83% 29.92 in 10.0 mi Variable 4.6 mph - N/A   Overcast
8:52 AM 57.9 °F 50.0 °F 75% 29.91 in 10.0 mi East 4.6 mph - N/A   Mostly Cloudy
9:05 AM 57.9 °F 50.0 °F 75% 29.91 in 10.0 mi Variable 5.8 mph - N/A   Scattered Clouds
9:52 AM 63.0 °F 51.1 °F 65% 29.90 in 10.0 mi Variable 5.8 mph - N/A   Clear
10:42 AM 63.0 °F 51.1 °F 65% 29.89 in 10.0 mi SSE 6.9 mph - N/A   Overcast
10:52 AM 64.0 °F 51.1 °F 63% 29.89 in 10.0 mi SE 6.9 mph - N/A   Overcast
11:09 AM 64.0 °F 51.1 °F 63% 29.89 in 10.0 mi South 8.1 mph - N/A   Mostly Cloudy
11:19 AM 64.9 °F 51.1 °F 61% 29.88 in 10.0 mi ESE 8.1 mph - N/A   Mostly Cloudy
11:52 AM 64.9 °F 51.1 °F 61% 29.88 in 10.0 mi ESE 9.2 mph - N/A   Mostly Cloudy
12:52 PM 62.1 °F 54.0 °F 75% 29.91 in 5.0 mi SW 5.8 mph - 0.01 in Rain Rain
1:03 PM 60.1 °F 50.0 °F 69% 29.90 in 2.0 mi East 4.6 mph - 0.06 in Rain Rain
1:12 PM 59.0 °F 53.1 °F 81% 29.90 in 4.0 mi Calm Calm - 0.07 in Rain Light Rain
1:52 PM 60.1 °F 55.0 °F 83% 29.90 in 9.0 mi SE 4.6 mph - 0.11 in Rain Light Rain
2:52 PM 60.1 °F 54.0 °F 80% 29.90 in 10.0 mi SSE 5.8 mph - 0.00 in   Overcast
3:52 PM 59.0 °F 54.0 °F 83% 29.88 in 10.0 mi ESE 6.9 mph - N/A   Overcast
4:20 PM 60.1 °F 55.0 °F 83% 29.88 in 10.0 mi SE 6.9 mph - N/A   Overcast
4:38 PM 61.0 °F 54.0 °F 78% 29.88 in 10.0 mi South 10.4 mph - N/A   Overcast
4:52 PM 60.1 °F 53.1 °F 78% 29.88 in 10.0 mi South 11.5 mph - N/A   Overcast
5:01 PM 59.0 °F 53.1 °F 81% 29.88 in 10.0 mi South 8.1 mph - N/A   Overcast
5:52 PM 60.1 °F 53.1 °F 78% 29.88 in 10.0 mi SSE 6.9 mph - N/A   Overcast
7:16 PM 57.9 °F 53.1 °F 84% 29.88 in 2.5 mi ESE 5.8 mph - 0.03 in Rain Rain
7:24 PM 57.9 °F 54.0 °F 87% 29.88 in 4.0 mi SE 8.1 mph - 0.04 in Rain Light Rain
7:52 PM 57.9 °F 55.0 °F 90% 29.89 in 10.0 mi Calm Calm - 0.04 in   Overcast
8:42 PM 57.9 °F 55.0 °F 90% 29.89 in 10.0 mi Calm Calm - N/A   Overcast
8:52 PM 57.9 °F 54.0 °F 87% 29.90 in 10.0 mi Calm Calm - N/A   Overcast
9:08 PM 57.9 °F 55.0 °F 90% 29.89 in 10.0 mi ESE 4.6 mph - N/A   Overcast
9:17 PM 57.9 °F 55.0 °F 90% 29.89 in 10.0 mi SSE 3.5 mph - N/A   Overcast
9:52 PM 57.0 °F 55.0 °F 93% 29.89 in 8.0 mi SE 4.6 mph - N/A   Overcast
10:32 PM 57.0 °F 54.0 °F 89% 29.88 in 9.0 mi ESE 4.6 mph - N/A   Overcast
10:52 PM 57.0 °F 54.0 °F 89% 29.88 in 9.0 mi ESE 4.6 mph - N/A   Overcast
11:28 PM 57.0 °F 54.0 °F 89% 29.88 in 7.0 mi SE 3.5 mph - N/A   Overcast
11:52 PM 57.0 °F 54.0 °F 89% 29.89 in 9.0 mi SE 4.6 mph - N/A   Overcast